Flag for India Weather past 2 weeks in Tiruvarur, Tamil Nadu, India

Now
82 °F

Scattered clouds.


Feels Like: 85 °F
Forecast: 80 / 97 °F
Wind: 12 mph from West

Location: Tiruchchirapalli

Current Time: Sep 17, 2014 at 7:43:43 AM

Latest Report: Sep 17, 2014 at 7:10 AM


Visibility: 2 mi

Pressure: 29.71 "Hg

Humidity: 62%

Dew point: 68 °F

Location of TiruvarurLocation

Historic Weather in Tiruvarur — Graph

°F

Tiruvarur temperature yesterday

Maximum temperature yesterday: 100 °F (at 2:40 PM)
Minimum temperature yesterday: 82 °F (at 1:40 AM)
Average temperature yesterday: 88 °F

Past Weeks' High & Low Weather Summary

 TemperatureHumidityPressure
High102 °F (Sep 14, 2:40 PM)84% (Sep 2, 9:10 PM)29.86 "Hg (Sep 2, 9:10 PM)
Low79 °F (Sep 2, 5:40 AM)33% (Sep 16, 2:40 PM)29.62 "Hg (Sep 6, 4:10 PM)
Average88 °F57%29.76 "Hg
* Reported Sep 2 4:40 AM — Sep 17 4:40 AM, Tiruvarur, Weather by CustomWeather, © 2014

Note: Actual official high and low records may vary slightly from our data, if they occured in-between our weather recording intervals... More about our weather records

Advertising

Tiruvarur weather history for previous 24 hours

 ConditionsComfort  
Time TempWeatherWind HumidityBarometerVisibility
4:40 AM
Sep 17
81 °FPassing clouds.12 mph66%29.68 "Hg4 mi
4:10 AM81 °FPassing clouds.12 mph66%29.68 "Hg4 mi
3:40 AM82 °FPassing clouds.16 mph62%29.68 "Hg4 mi
3:10 AM82 °FPassing clouds.16 mph58%29.68 "Hg4 mi
2:40 AM82 °FPassing clouds.16 mph58%29.68 "Hg4 mi
2:10 AM82 °FPassing clouds.16 mph62%29.68 "Hg4 mi
1:40 AM84 °FPassing clouds.18 mph58%29.68 "Hg4 mi
1:10 AM84 °FPassing clouds.12 mph58%29.68 "Hg4 mi
12:40 AM84 °FPassing clouds.8 mph55%29.68 "Hg4 mi
12:10 AM84 °FPassing clouds.8 mph55%29.71 "Hg4 mi
11:40 PM
Sep 16
84 °FPassing clouds.8 mph55%29.71 "Hg4 mi
11:10 PM84 °FPassing clouds.9 mph55%29.71 "Hg4 mi
10:40 PM84 °FPassing clouds.9 mph55%29.71 "Hg4 mi
9:40 PM86 °FPassing clouds.9 mph52%29.71 "Hg4 mi
9:10 PM88 °FPassing clouds.10 mph46%29.71 "Hg4 mi
8:40 PM88 °FPassing clouds.13 mph46%29.71 "Hg4 mi
8:10 PM88 °FPassing clouds.13 mph43%29.68 "Hg4 mi
7:40 PM90 °FPassing clouds.13 mph41%29.68 "Hg4 mi
7:10 PM90 °FPassing clouds.10 mph43%29.65 "Hg4 mi
6:40 PM91 °FScattered clouds.12 mph46%29.65 "Hg4 mi
6:10 PM93 °FScattered clouds.12 mph41%29.62 "Hg4 mi
4:10 PM99 °FScattered clouds.15 mph35%29.62 "Hg5 mi
3:40 PM99 °FScattered clouds.17 mph35%29.62 "Hg5 mi
2:40 PM100 °FScattered clouds.16 mph33%29.62 "Hg4 mi
2:10 PM99 °FScattered clouds.15 mph37%29.65 "Hg4 mi
1:40 PM99 °FScattered clouds.12 mph35%29.65 "Hg4 mi
1:10 PM97 °FScattered clouds.12 mph37%29.68 "Hg4 mi
12:40 PM97 °FScattered clouds.12 mph37%29.68 "Hg4 mi
12:10 PM97 °FScattered clouds.16 mph39%29.71 "Hg4 mi
11:40 AM95 °FScattered clouds.16 mph41%29.74 "Hg4 mi
11:10 AM93 °FScattered clouds.15 mph47%29.74 "Hg4 mi
10:40 AM91 °FScattered clouds.17 mph49%29.77 "Hg4 mi
10:10 AM90 °FPartly sunny.15 mph52%29.77 "Hg4 mi
9:40 AM88 °FPartly sunny.15 mph55%29.77 "Hg4 mi
9:10 AM86 °FPartly sunny.13 mph59%29.77 "Hg4 mi
8:10 AM84 °FPartly sunny.12 mph62%29.77 "Hg4 mi
7:40 AM84 °FScattered clouds.13 mph62%29.74 "Hg4 mi
7:10 AM82 °FScattered clouds.13 mph66%29.74 "Hg4 mi
Weather by CustomWeather, © 2014

See weather overviewHow to use our weather pages